ISS DEB (51278 NORAD) Tracking and Keplerian Element Data

This shows tracking and keplerian element data for the satellite.

Feedback or suggestion? Click here.




ElementValue
Catalog51278
NameISS DEB
Epoch Orbit838
Epoch Day72.15162613
Epoch Year2022
RAAN85.9385
Inclination51.6172
Eccentricity0.0003028
Argument of Perigee165.4179
Mean Anonmoly194.6932
Mean Motion16.31945668
Decay Rate0.18071015
L11 51278U 98067SZ 22072.15162613 .18071015 12128-4 31840-2 0 9990
L22 51278 51.6172 85.9385 0003028 165.4179 194.6932 16.31945668 8383



Live tracking and technical data element details for ISS DEB (NORAD 51278). ISS DEB can be tracked NOW for your location showing map with azimuth and elevation plus other details from your city location.







IsCatalogInMostPopularTable: catalog: 51278, numindb: 111
Update: records affected: 1



GetName: 51278 ISS DEB

Hit Count: updated at: Fri, 06 Dec 2024 11:17:11 GMT